Regional Weather Roundup
Issued by NWS Grand Forks, ND

Home | Current Version | Previous Version | Text Only | Print | Product List | Glossary On
Versions: 1 2 3 4 5 6 7 8 9 10 11 12 13 14 15 16 17 18 19 20 21 22 23 24 25 26 27 28 29 30 31 32 33 34 35 36 37 38 39 40 41 42 43 44 45 46 47 48 49 50
000
ASUS43 KFGF 210931
RWRFGF
PRAIRIE TO PINES  WEATHER ROUNDUP
NATIONAL WEATHER SERVICE EASTERN NORTH DAKOTA/GRAND FORKS ND
300 AM CST SUN DEC 21 2014

 **SATELLITE DATA USED TO AUGMENT SKY COVER AT AUTOMATED STATIONS**
 *****  WEATHER ACROSS EASTERN NORTH DAKOTA  *****

CITY           SKY/WX    TMP DP  RH WIND       PRES   REMARKS
GRAND FORKS    CLOUDY    30  28  92 S12       29.79F WCI  20
GRAND FRKS AFB CLOUDY    28  28 100 S13       29.78F WCI  18
GRAND FRKS NWS   N/A     30 N/A N/A S18         N/A  WCI  18
DEVILS LAKE    PTCLDY    25  18  74 S7        29.68F WCI  17
FARGO          CLOUDY    32  29  88 S13       29.83F FOG     WCI  22
WAHPETON ARPT  CLOUDY    32  28  86 S13       29.85F WCI  22
$$

 ***** WEATHER ACROSS CENTRAL AND WESTERN NORTH DAKOTA  *****

CITY           SKY/WX    TMP DP  RH WIND       PRES   REMARKS
BISMARCK       CLEAR     13  11  92 NE5       29.74F WCI   5
MINOT          CLEAR     26  21  81 SW12      29.65F WCI  16
JAMESTOWN      FOG       25  22  88 S12       29.74F VSB 3/4 WCI  14
MINOT AFB      CLEAR     18  18  99 SW3       29.65F
GARRISON         N/A     22  20  92 CALM      29.67F
WILLISTON      CLEAR     16  14  92 SW3       29.63F
DICKINSON      MOCLDY    25  20  81 S10       29.64F WCI  15
HETTINGER      CLEAR     27  21  78 CALM      29.69F
$$

 *****  OTHER AIRPORT OBSERVATIONS IN OUR AREA  *****

CITY           SKY/WX    TMP DP  RH WIND       PRES   REMARKS
WALHALLA         N/A     28  28 100 S9        29.73F WCI  20
GRAFTON AIRPOR NOT AVBL
VALLEY CITY AR CLOUDY    27  27 100 S15       29.76F FOG     WCI  15
CANDO          FAIR      25  23  93 SE6       29.69F WCI  18
CAVALIER APRT  CLOUDY    28  28 100 S10       29.73F FOG     WCI  19
GWINNER        CLOUDY    32  32 100 MISG      29.81F
SHEYENNE NWR     N/A     31  29  92 S10       29.95  WCI  22
ROLLA          CLOUDY    25  25 100 MISG      29.66F
 ***** THE ABOVE OBSERVATIONS ARE NON NWS ARE NOT QUALITY
       CONTROLLED AND MAY MIS-REPORT RAIN FOR SNOW...
$$

  *****  WEATHER ACROSS NORTHERN MINNESOTA  *****

CITY           SKY/WX    TMP DP  RH WIND       PRES   REMARKS
FLAG ISLAND    LGT SNOW  28  28 100 SE20      29.81F WCI  15
WARROAD        CLOUDY    30  27  86 S7        29.82F FOG     WCI  23
ROSEAU         CLOUDY    30  27  86 S13       29.80F FOG     WCI  20
HALLOCK        CLOUDY    30  30 100 CALM      29.76F FOG
THF RVR FALLS  CLOUDY    30  28  93 S16       29.81S WCI  19
BAUDETTE       CLOUDY    29  26  89 S8        29.84F WCI  21
WASKISH        LGT SNOW  28  27  93 S3        29.85F
CROOKSTON      CLOUDY    30  30 100 S20       29.81F FOG     WCI  18
STEPHEN NDAWN    N/A     30  30 100 S14         N/A  WCI  20
GREENBUSH NDAW   N/A     30  30 100 S1          N/A
$$
  *****  WEATHER ACROSS CENTRAL AND WEST MINNESOTA  *****

CITY           SKY/WX    TMP DP  RH WIND       PRES   REMARKS
FOSSTON        CLOUDY    27  27 100 S20       29.82F FOG     WCI  13
BEMIDJI        CLOUDY    28  27  97 S14       29.84F FOG     WCI  17
PARK RAPIDS    CLOUDY    29  28  96 S16       29.86F FOG     WCI  17
ELBOW LAKE     CLOUDY    30  29  98 S17       29.86F FOG     WCI  18
WADENA         CLOUDY    28  27  93 S13G23    29.86F FOG     WCI  18
DETROIT LAKES  CLOUDY    30  30 100 S15       29.84F FOG     WCI  19
MOORHEAD       CLOUDY    32  32 100 S15       29.84F FOG     WCI  22
FERGUS FALLS   CLOUDY    30  28  93 S18       29.88F FOG     WCI  18
MORRIS MN      CLOUDY    30  30 100 S14       29.87F FOG     WCI  20
STAPLES        CLOUDY    28  28 100 S12       29.88F FOG     WCI  18
$$
  *****  WEATHER ELSEWHERE ACROSS MINNESOTA  *****

CITY           SKY/WX    TMP DP  RH WIND       PRES   REMARKS
DULUTH         LGT SNOW  29  26  89 S13       29.97F FOG     WCI  19
INTRNTL FALLS  LGT SNOW  28  25  88 S8        29.88F VSB 3/4 WCI  20
ELY            CLOUDY    28  27  93 S9        29.94F WCI  20
CLOQUET        CLOUDY    28  27  93 S14       29.97F WCI  17
WHEATON        CLOUDY    28  27  93 S9        29.88F FOG     WCI  20
BRAINERD       CLOUDY    29  27  92 S15       29.93F FOG     WCI  18
HIBBING        CLOUDY    29  25  85 S9        29.94F WCI  20
ALEXANDRIA     CLOUDY    30  28  92 S16       29.89F FOG     WCI  19
SAINT CLOUD    CLOUDY    32  28  85 S13       29.95F FOG     WCI  22
MINNEAPOLIS    CLOUDY    31  28  89 SE9       30.02F FOG     WCI  23
$$

  *****  WEATHER ACROSS SOUTH DAKOTA  *****

CITY           SKY/WX    TMP DP  RH WIND       PRES   REMARKS
SIOUX FALLS    FOG       31  30  96 S9        29.88F VSB 1/2 WCI  23
BROOKINGS      NOT AVBL
WATERTOWN      CLOUDY    29  28  96 S10       29.83F FOG     WCI  20
HURON          CLOUDY    31  30  96 S9        29.84S FOG     WCI  23
SISSETON         N/A     30  29  96 S12       29.84F WCI  20
ABERDEEN       CLOUDY    30  28  92 S13       29.82F FOG     WCI  20
MITCHELL       CLOUDY    32  31  96 S15       29.84F FOG     WCI  22
PIERRE         CLOUDY    24  22  91 E5        29.77F WCI  18
MOBRIDGE       MOCLDY    26  23  88 SE7       29.72F WCI  18
RAPID CITY     CLEAR     28  22  78 CALM      29.69F
$$

  *****  SOME WEATHER IN NEARBY STATES *****

CITY           SKY/WX    TMP DP  RH WIND       PRES   REMARKS
GLASGOW MT     CLEAR     23  18  81 E13       29.53F WCI  11
GREAT FALLS MT CLOUDY    43  28  55 S16G25    29.42F
CHEYENNE WY    PTCLDY    35  21  56 W23       29.83F WCI  23
SCOTTSBLUFF NE CLEAR     24  19  81 CALM      29.81F
OMAHA NE       CLOUDY    36  35  96 S12       29.99S FOG
DES MOINES IA  CLOUDY    39  35  86 S13       30.04F
DAVENPORT IA   CLOUDY    34  31  88 S10       30.17S FOG
CHICAGO IL     CLOUDY    32  26  78 S7        30.23S
EAU CLAIRE WI  CLOUDY    31  27  85 S8        30.07F WCI  23
LA CROSSE WI   CLOUDY    33  29  85 SE8       30.11F FOG
$$

  *****  SOME NATIONAL WEATHER *****

CITY           SKY/WX    TMP DP  RH WIND       PRES   REMARKS
LA GUARDIA NY  CLOUDY    32  23  69 NW6       30.28S
RALEIGH NC     CLOUDY    38  34  85 NE3       30.27F FOG
ATLANTA GA     CLOUDY    46  43  87 E8        30.19S FOG
NEW ORLEANS LA CLOUDY    53  48  83 E7        30.13S
OKLAHOMA CITY  CLOUDY    43  37  79 SE10      30.08F
ALBUQUERQUE NM MOCLDY    35  27  72 CALM      30.08F
SALT LAKE CITY CLOUDY    41  33  73 SE10      30.01F
LOS ANGELES CA PTCLDY    58  48  69 VRB7      30.14F
BOISE ID       LGT RAIN  41  38  89 SE12      29.86F
SEATTLE WA     MOCLDY    53  49  86 SW20G28   29.61R
$$

*** WEATHER ACROSS MANITOBA...SASKATCHEWAN AND ONTARIO ***
                ***ONTARIO***

CITY           SKY/WX    TMP DP  RH WIND       PRES   REMARKS
GERALDTON      FLURRIES  25  25 100 SE2       30.07F
THUNDER BAY    CLOUDY    32  28  86 S7        30.05F
SIOUX LOOKOUT  FRZ DRZL  28  27  93 S9        29.90F WCI  20
TORONTO        MOCLDY    28  21  74 N2        30.28S
BIG TROUT LK   CLOUDY    25  23  93 S7        29.92F WCI  17
PICKLE LAKE    NOT AVBL
DRYDEN         LGT SNOW  28  27  93 S12G17    29.87F WCI  18
KENORA         LGT SNOW  27  27 100 S12G17    29.83F FOG     WCI  16
$$
                *** MANITOBA***

CITY           SKY/WX    TMP DP  RH WIND       PRES   REMARKS
BRANDON        CLOUDY    25  25 100 E3        29.67F FOG
DAUPHIN        FLURRIES  25  23  93 SE6       29.66F WCI  18
ISLAND LAKE    FLURRIES  25  23  93 SE8       29.80F WCI  16
PILOT MOUND      N/A     25  25 100 CALM        N/A
THE PAS        FOG       21  19  93 SE7       29.67F VSB 3/4 WCI  13
THOMPSON       FLURRIES  18  16  93 S6        29.75F WCI   9
WINNIPEG       LGT SNOW  28  28 100 S14       29.75F FOG     WCI  17
LYNN LAKE      CLOUDY    14  12  92 SW8       29.68R WCI   3
CHURCHILL      FLURRIES  19  18  93 SW15      29.78F WCI   5
GILLAM         FRZ DRZL  23  21  93 S5        29.80  WCI  17
$$
                ***SASKATCHEWAN***

CITY           SKY/WX    TMP DP  RH WIND       PRES   REMARKS
ESTEVAN        CLEAR     18  16  93 S5        29.61F WCI  11
KINDERSLEY     PTCLDY    19  16  86 SE7       29.40F WCI  10
LLOYDMINSTER   SNOW      14  12  92 E9        29.41F VSB 1/2 WCI   2
PRINCE ALBERT  LGT SNOW  21  21 100 S5        29.57R VSB 1   WCI  15
REGINA         PTCLDY    14  12  92 E9        29.57F WCI   2
YORKTON        CLOUDY    27  27 100 S5        29.60F FOG     WCI  21
N. BATTLEFORD  FRZ RAIN  18  18 100 SE15      29.49F VSB 3/8 WCI   3
LA RONGE       FLURRIES  18  16  93 E3        29.60
SASKATOON      FOG       21  21 100 SE5       29.54  VSB 1/2 WCI  15
SWIFT CURRENT    N/A     23  19  86 S14       29.45F WCI  11
$$
NOTE: THESE ARE AUTOMATED STATIONS WITH LIMITED QUALITY CONTROL
      "FAIR" INDICATES FEW OR NO CLOUDS BELOW 12,000 FEET WITH NO
      SIGNIFICANT WEATHER AND/OR OBSTRUCTIONS TO VISIBILITY.
      SKY/WX - SKY CONDITION AND SIGNIFICANT WEATHER.
      TMP - AIR TEMPERATURE.    DP   - DEWPOINT TEMPERATURE.
      RH  - RELATIVE HUMIDITY.  PRES - PRESSURE.
      HX  - HEAT INDEX.         WCI  - WIND CHILL INDEX.
$


USA.gov is the U.S. government's official web portal to all federal, state and local government web resources and services.